Location: Orinda
(37.8771°N, 122.1797°W)
Time: 06:02:38
(UTC+00:00)

Daily predictions for brighter satellites

Satellite Brightness Start Highest point End
(mag) Time Altitude Azimuth Time Altitude Azimuth Time Altitude Azimuth
Aureole 1 Rocket 3.8 12:00:23 10° NW 12:04:44 41° WSW 12:10:05 10° S
ALOS 3.7 12:03:23 10° NNW 12:06:39 20° WNW 12:07:42 18° W
Meteor 2-4 Rocket 4.4 12:04:38 23° WSW 12:06:47 31° WNW 12:11:30 10° NNW
Sich 1 2.8 12:03:14 10° N 12:07:24 81° W 12:11:30 10° S
Okean 3 Rocket 3.5 12:08:08 10° N 12:12:34 75° W 12:17:02 10° S
BREEZE-M DEB (TANK) 2.9 12:07:12 10° NW 12:14:17 64° SW 12:16:58 10° SE
ADEOS II 3.3 12:14:25 10° NNW 12:18:37 25° WNW 12:21:20 17° WSW
Cosmos 1805 Rocket 3.7 12:15:39 10° N 12:20:02 76° E 12:24:23 10° S
Cosmos 1417 Rocket 4.4 12:13:52 10° S 12:20:03 83° W 12:26:13 10° N
Cosmos 841 Rocket 4.4 12:18:29 18° WSW 12:21:27 32° WNW 12:26:03 10° N
Cosmos 2297 Rocket 2.3 12:17:34 10° SSW 12:23:12 80° ESE 12:28:51 10° NNE
H-2A R/B 2.1 12:22:03 10° N 12:25:55 48° WNW 12:29:32 11° SSW
Cosmos 1340 Rocket 4.4 12:24:20 10° N 12:27:50 36° ENE 12:31:20 10° SE
NOSS 0 Rocket 4.4 12:22:49 10° NNW 12:28:59 67° ENE 12:35:06 10° SSE
CZ-2D R/B 3.9 12:26:37 10° NNW 12:29:32 15° WNW 12:32:06 11° W
SL-4 R/B 2.4 12:27:58 10° WNW 12:31:28 34° SW 12:34:49 10° SSE
Cosmos 1898 Rocket 3.9 12:29:50 10° NW 12:34:37 40° WSW 12:39:23 10° S
SL-14 R/B 4.3 12:32:59 13° SW 12:35:45 27° WNW 12:39:07 10° NNW
Cosmos 158 Rocket 4.2 12:31:26 10° SSW 12:36:39 80° ESE 12:42:00 10° NNE
COSMOS 2428 2.7 12:31:40 10° NNW 12:37:23 78° WSW 12:43:02 10° SSE
Cosmos 2263 Rocket 4.5 12:33:58 10° SSE 12:38:25 25° ESE 12:42:52 10° NE
Cosmos 1937 Rocket 3.6 12:33:32 10° NNW 12:38:33 52° WSW 12:43:29 10° S
S3M 4.0 12:33:55 10° SSW 12:40:13 68° W 12:46:32 10° N
RESURS DK-1 4.1 12:38:12 10° N 12:41:53 36° ENE 12:45:33 10° SE
DELTA 2 R/B (1) 3.6 12:37:14 11° WSW 12:42:29 89° NNW 12:48:03 10° ENE
NOSS 3-4 (A) 4.3 12:37:22 10° NW 12:44:08 43° WSW 12:51:52 10° S
NOSS 3-4 (C) 4.3 12:37:54 10° NW 12:44:43 43° WSW 12:52:26 10° S
Cosmos 1939 Rocket 2.9 12:42:28 10° NNE 12:46:06 73° ESE 12:49:45 10° S
USA 234 3.3 12:40:16 10° SSE 12:46:42 63° SW 12:53:12 10° NW
SL-16 R/B 2.8 12:40:54 10° S 12:46:53 48° W 12:52:56 10° NNW
ISS -1.3 12:48:36 10° NW 12:50:26 14° NNW 12:52:17 10° NNE
CZ-2C R/B 2.5 12:49:36 10° N 12:54:17 52° WNW 12:58:48 10° SSW
Meteor 1-28 Rocket 2.8 12:56:14 10° S 12:59:27 59° W 13:02:40 10° NNW
Cosmos 1408 Rocket 4.2 12:56:25 10° NNW 13:00:14 33° W 13:04:03 10° SSW
Cosmos 44 4.2 12:55:51 10° NNW 13:01:11 60° ENE 13:06:19 10° SE
Meteor 1-13 Rocket 4.3 12:55:42 10° S 13:01:12 87° E 13:06:45 10° N
